Regional Weather Roundup
Issued by NWS

Home | Current Version | Previous Version | Text Only | Print | Product List | Glossary Off
Versions: 1 2 3 4 5 6 7 8 9 10 11 12 13 14 15 16 17 18 19 20 21 22 23 24 25 26 27 28 29 30 31 32 33 34 35 36 37 38 39 40 41 42 43 44 45 46 47 48 49 50

662
ASUS43 KIND 241509
RWRIN

WEATHER ROUNDUP FOR INDIANA
NATIONAL WEATHER SERVICE INDIANAPOLIS IN
1000 AM EST FRI NOV 24 2017

NOTE: "FAIR" INDICATES FEW OR NO CLOUDS BELOW 12,000 FEET WITH NO
SIGNIFICANT WEATHER AND/OR OBSTRUCTIONS TO VISIBILITY.

* - STATION DOES NOT REPORT WEATHER SUCH AS PRECIPITATION OR FOG.

+ - STATION NOT QUALITY CONTROLLED BY THE NATIONAL WEATHER SERVICE.
    USE DATA WITH CAUTION...ESPECIALLY DEWPOINT AND RELATIVE
    HUMIDITY OBSERVATIONS.

INZ001>003-010>013-019-020-241600-
NORTHWEST INDIANA

CITY           SKY/WX    TMP DP  RH WIND       PRES   REMARKS
GARY /AIRPORT/ MOSUNNY   43  27  52 SW12G23   29.78F
KNOX *+        SUNNY     37  28  70 S10       29.81F WCI  30
LA PORTE +     SUNNY     37  29  71 S8        29.81S WCI  31
MICHIGAN CITY+ SUNNY     43  28  56 S12G20    29.79F
MONTICELLO +   SUNNY     37  26  64 S9        29.84F WCI  31
RENSSELAER +   SUNNY     39  28  65 S10       29.82F WCI  32
VALPARAISO     SUNNY     41  29  62 S12       29.81S

$$

LMZ046-743>745-241600-
SOUTHERN LAKE MICHIGAN

STATION/POSITION TIME  TEMP    WIND        PRES    WAVE
                       AIR SEA DIR/SP/G            HT
                 (UTC) (F)     (DEG/KT/KT) (MB)    (FT)
BURNS HARBOR     1441   41     190/ 14/ 20 1009.1F
MICHIGAN CITY    1440   39     180/ 11/ 13   N/A

$$

INZ004-005-014>016-021>024-241600-
NORTH CENTRAL INDIANA

CITY           SKY/WX    TMP DP  RH WIND       PRES   REMARKS
GOSHEN         SUNNY     39  26  59 S10       29.82F WCI  32
LOGANSPORT +   SUNNY     37  30  75 S10       29.86F WCI  30
PERU/GRISSOM   SUNNY     40  29  64 S15       29.84F WCI  32
ROCHESTER +    SUNNY     43  30  61 S9        29.84F
SOUTH BEND     SUNNY     40  28  62 S12       29.81F WCI  33
WARSAW +       SUNNY     37  28  70 S7        29.83F WCI  32

$$

INZ006>009-017-018-025>027-241600-
NORTHEAST INDIANA

CITY           SKY/WX    TMP DP  RH WIND       PRES   REMARKS
AUBURN +       SUNNY     39  27  60 S6        29.86F WCI  35
FORT WAYNE     MOSUNNY   40  29  64 S13       29.87F WCI  32
HUNTINGTON +   SUNNY     39  26  58 S12       29.86F WCI  32
KENDALLVILLE + SUNNY     40  28  61 S13       29.83F WCI  33

$$

INZ028-029-035-036-043>045-051>053-241600-
WEST CENTRAL INDIANA

CITY           SKY/WX    TMP DP  RH WIND       PRES   REMARKS
CRAWFORDSVL +  SUNNY     38  29  69 S13       29.87F WCI  30
GREENCASTLE +  SUNNY     39  27  60 S6        29.90F WCI  35
LAFAYETTE      CLOUDY    40  30  67 S12       29.85F WCI  33
TERRE HAUTE    SUNNY     41  29  62 S8        29.90F

$$

INZ030>032-037>040-046>048-054>057-064-065-241600-
CENTRAL INDIANA

CITY           SKY/WX    TMP DP  RH WIND       PRES   REMARKS
ANDERSON       SUNNY     41  27  56 S9G16     29.91F
CP ATTERBURY + SUNNY     41  28  60 S3        29.93F
FISHERS *+     SUNNY     41  30  65 SW10      29.90F
FRANKFORT +    SUNNY     42  31  62 S12       29.87F
GREENWOOD *+   SUNNY     44  29  56 S6        29.92F
INDIANAPOLIS   MOSUNNY   42  27  55 S10       29.90F
-EAGLE CREEK   SUNNY     41  26  55 S7        29.90F
KOKOMO +       SUNNY     39  28  64 S15       29.87F WCI  31
MARION +       SUNNY     38  28  67 S13G18    29.89F HAZE    WCI  30
MT COMFORT *+  SUNNY     39  30  70 S9        29.91F WCI  33
SHELBYVILLE    SUNNY     40  26  57 S10       29.92F WCI  33
ZIONSVILLE +   SUNNY     39  28  63 S9        29.90F WCI  33

$$

INZ033-034-041-042-049-050-058-059-241600-
EAST CENTRAL INDIANA

CITY           SKY/WX    TMP DP  RH WIND       PRES   REMARKS
MUNCIE         SUNNY     43  26  51 S5        29.90F
RICHMOND +     SUNNY     37  30  75 S10       29.94S WCI  30

$$

INZ060-061-067>069-081>083-085>088-241600-
SOUTHWEST INDIANA

CITY           SKY/WX    TMP DP  RH WIND       PRES   REMARKS
EVANSVILLE     SUNNY     44  30  57 S9        29.96F
HUNTINGBURG +  MOSUNNY   43  28  55 S10       29.96F
WASHINGTON +   MOSUNNY   40  27  59 S9        29.93F WCI  34

$$

INZ062-063-066-070>080-084-089>092-241600-
SOUTH CENTRAL AND SOUTHEAST INDIANA

CITY           SKY/WX    TMP DP  RH WIND       PRES   REMARKS
BEDFORD +      SUNNY     41  25  52 S8        29.94S
BLOOMINGTON    SUNNY     43  27  53 S10       29.92F
MADISON *+     SUNNY     41  28  60 S8        29.99S
NORTH VERNON + SUNNY     39  27  60 S7        29.96F WCI  34

$$





USA.gov is the U.S. government's official web portal to all federal, state and local government web resources and services.